Home > Weather > Waldkraiburg > Past weeks

Flag for Germany Past Weather in Waldkraiburg, Bavaria, Germany — Yesterday and Last 2 Weeks

Now
75 °F

Scattered clouds.


Feels Like: 78 °F
Forecast: 57 / 77 °F
Wind: 5 mph from Southwest

Location: Munich / Franz Josef Strauss Airport

Current Time: Jun 30, 2016 at 6:01:04 PM

Latest Report: Jun 30, 2016 at 5:20 PM


Visibility: N/A

Pressure: 30.01 "Hg

Humidity: 54%

Dew Point: 57 °F

Location of WaldkraiburgLocation

Past Weather in Waldkraiburg — Graph

°F

Waldkraiburg Temperature Yesterday

Maximum temperature yesterday: 77 °F (at 3:50 PM)
Minimum temperature yesterday: 55 °F (at 2:20 AM)
Average temperature yesterday: 67 °F

High & Low Weather Summary for the Past Weeks

 TemperatureHumidityPressure
High88 °F (Jun 24, 4:50 PM)100% (Jun 16, 1:50 AM)30.30 "Hg (Jun 16, 1:50 AM)
Low46 °F (Jun 18, 5:20 AM)39% (Jun 28, 5:20 PM)29.56 "Hg (Jun 16, 10:50 AM)
Average64 °F77%30.05 "Hg
* Reported Jun 15 4:20 PM — Jun 30 4:50 PM, Waldkraiburg, Weather by CustomWeather, © 2016

Note: Actual official high and low records may vary slightly from our data, if they occured in-between our weather recording intervals... More about our weather records

Advertising

Waldkraiburg Weather History for the Previous 24 Hours

Scroll right to see more
 ConditionsComfort  
Time TempWeatherWind HumidityBarometerVisibility
4:50 PM
Thu, Jun 30
73 °FScattered clouds.5 mph57%30.01 "HgN/A
4:20 PM73 °FScattered clouds.5 mph65%30.01 "HgN/A
3:50 PM73 °FPartly sunny.6 mph65%30.04 "HgN/A
3:20 PM73 °FSprinkles. Partly sunny.5 mph65%30.04 "HgN/A
2:50 PM72 °FSprinkles. Partly sunny.7 mph69%30.04 "HgN/A
2:20 PM70 °FScattered showers. Broken clouds.7 mph73%30.04 "HgN/A
1:50 PM70 °FBroken clouds.7 mph69%30.04 "HgN/A
1:20 PM70 °FPartly sunny.6 mph73%30.07 "HgN/A
12:50 PM70 °FPartly sunny.9 mph73%30.07 "HgN/A
12:20 PM66 °FScattered showers. Partly sunny.8 mph88%30.07 "HgN/A
11:50 AM64 °FSprinkles. Partly sunny.5 mph94%30.07 "HgN/A
11:20 AM64 °FSprinkles. Partly sunny.3 mph94%30.07 "HgN/A
10:50 AM63 °FSprinkles. Partly sunny.2 mph100%30.07 "HgN/A
10:20 AM63 °FSprinkles. Partly sunny.7 mph94%30.07 "HgN/A
9:50 AM64 °FSprinkles. Partly sunny.10 mph88%30.07 "HgN/A
9:20 AM64 °FScattered showers. Partly sunny.14 mph88%30.04 "HgN/A
8:50 AM64 °FScattered showers. Partly sunny.14 mph94%30.04 "HgN/A
8:20 AM64 °FScattered showers. Partly sunny.12 mph94%30.04 "HgN/A
7:50 AM64 °FPartly sunny.12 mph94%30.01 "HgN/A
7:20 AM63 °FPartly sunny.9 mph100%30.01 "HgN/A
6:50 AM61 °FScattered showers. Partly sunny.3 mph100%29.98 "HgN/A
6:20 AM61 °FRain showers. Broken clouds.2 mph100%29.98 "HgN/A
5:50 AM63 °FThunderstorms. Passing clouds.10 mph94%30.01 "Hg6 mi
5:20 AM61 °FScattered showers. Partly cloudy.3 mph100%29.98 "HgN/A
4:50 AM57 °FPassing clouds.1 mph100%29.95 "HgN/A
4:20 AM57 °FClear.2 mph100%29.95 "Hg10 mi
3:50 AM59 °FClear.1 mph100%29.98 "Hg10 mi
3:20 AM59 °FClear.1 mph100%29.95 "Hg10 mi
2:50 AM59 °FClear.1 mph94%29.95 "Hg10 mi
2:20 AM59 °FClear.2 mph100%29.95 "Hg10 mi
1:50 AM59 °FClear.1 mph100%29.95 "Hg10 mi
1:20 AM59 °FClear.2 mph100%29.95 "Hg10 mi
12:50 AM61 °FClear.2 mph94%29.95 "Hg10 mi
12:20 AM63 °FClear.1 mph88%29.98 "Hg10 mi
11:50 PM
Wed, Jun 29
64 °FClear.1 mph78%29.98 "Hg10 mi
11:20 PM68 °FClear.2 mph73%29.95 "Hg10 mi
10:50 PM64 °FClear.5 mph83%29.95 "Hg10 mi
10:20 PM64 °FClear.5 mph83%29.98 "Hg10 mi
9:50 PM66 °FPassing clouds.5 mph83%29.98 "HgN/A
9:20 PM70 °FSunny.2 mph73%29.98 "Hg10 mi
8:50 PM72 °FSunny.2 mph65%29.95 "Hg10 mi
8:20 PM73 °FPassing clouds.3 mph57%29.95 "HgN/A
7:50 PM75 °FScattered clouds.5 mph57%29.95 "HgN/A
7:20 PM75 °FScattered clouds.1 mph61%29.95 "HgN/A
6:50 PM75 °FPartly sunny.3 mph57%29.95 "HgN/A
6:20 PM75 °FScattered clouds.7 mph61%29.95 "HgN/A
Weather by CustomWeather, © 2016

See weather overviewHow to use our weather pages